Flag for Cuba Weather past 2 weeks in Santiago de Cuba, Cuba

Now
77 °F

Passing clouds.


Feels Like: 78 °F
Forecast: 74 / 90 °F
Wind: 7 mph from North

Location: Santiago De Cuba - Oriente

Current Time: Sep 3, 2015 at 4:00:54 AM

Latest Report: Sep 3, 2015 at 2:51 AM


Visibility: 6 mi

Pressure: 29.92 "Hg

Humidity: 83%

Dew point: 72 °F

Location of Santiago de CubaLocation

Historic Weather in Santiago de Cuba — Graph

°F

Santiago de Cuba temperature yesterday

Maximum temperature yesterday: 90 °F (at 12:50 PM)
Minimum temperature yesterday: 77 °F (at 3:50 AM)
Average temperature yesterday: 82 °F

Past Weeks' High & Low Weather Summary

 TemperatureHumidityPressure
High91 °F (Aug 28, 10:50 AM)100% (Sep 1, 5:51 AM)30.04 "Hg (Sep 1, 5:51 AM)
Low75 °F (Aug 19, 4:50 AM)49% (Aug 28, 10:50 AM)29.83 "Hg (Aug 28, 3:51 PM)
Average83 °F69%29.95 "Hg
* Reported Aug 19 2:50 AM — Sep 3 2:51 AM, Santiago de Cuba, Weather by CustomWeather, © 2015

Note: Actual official high and low records may vary slightly from our data, if they occured in-between our weather recording intervals... More about our weather records

Advertising

Santiago de Cuba weather history for previous 24 hours

 ConditionsComfort  
Time TempWeatherWind HumidityBarometerVisibility
2:51 AM
Thu, Sep 3
77 °FPassing clouds.7 mph83%29.92 "Hg6 mi
1:51 AM77 °FPassing clouds.6 mph83%29.95 "Hg6 mi
12:51 AM79 °FPassing clouds.5 mph79%29.98 "Hg6 mi
11:50 PM
Wed, Sep 2
77 °FPassing clouds.6 mph79%29.98 "Hg6 mi
10:50 PM77 °FPassing clouds.5 mph89%29.98 "Hg6 mi
9:51 PM79 °FPassing clouds.6 mph79%29.98 "Hg6 mi
7:50 PM79 °FScattered clouds.2 mph74%29.95 "Hg6 mi
6:50 PM77 °FScattered clouds.6 mph79%29.95 "Hg6 mi
5:53 PM82 °FScattered showers. More clouds than sun.10 mph58%N/A5 mi
4:50 PM88 °FScattered showers. Passing clouds.13 mph62%29.92 "Hg5 mi
3:51 PM88 °FScattered showers. Scattered clouds.14 mph59%29.95 "Hg5 mi
2:52 PM88 °FScattered clouds.14 mph66%29.95 "HgN/A
1:50 PM90 °FScattered clouds.13 mph63%29.98 "HgN/A
12:50 PM90 °FPassing clouds.10 mph59%30.01 "HgN/A
11:50 AM88 °FPassing clouds.9 mph55%30.01 "HgN/A
10:51 AM88 °FPassing clouds.6 mph55%30.01 "HgN/A
9:50 AM88 °FPassing clouds.5 mph52%30.01 "HgN/A
8:51 AM84 °FPassing clouds.3 mph62%30.01 "Hg6 mi
7:51 AM81 °FPassing clouds.5 mph74%30.01 "Hg6 mi
6:52 AM77 °FPassing clouds.5 mph79%30.01 "Hg6 mi
5:50 AM77 °FPassing clouds.5 mph79%29.98 "Hg6 mi
4:51 AM77 °FPassing clouds.6 mph79%29.98 "Hg6 mi
Weather by CustomWeather, © 2015

See weather overviewHow to use our weather pages